Other Public Products
Issued by NWS Charleston, SC

Home | Current Version | Previous Version | Text Only | Print | Product List | Glossary On
Versions: 1 2 3 4 5 6 7 8 9 10 11 12 13 14 15 16 17 18 19 20 21 22 23 24 25 26 27 28 29 30 31 32 33 34 35 36 37 38 39 40 41 42 43 44 45 46 47 48 49 50
006
FPUS82 KCHS 240627
OPUCHS

TEST...KCHS/KSAV Gateway Observations...TEST
National Weather Service Charleston SC
200 AM EDT MON APR 24 2017

NOTE: "fair" indicates few or no clouds below 12,000 feet with no
significant weather and/or obstructions to visibility.

SCZ050-WAZ558-NCZ071-TXZ119-213-PAZ071-DCZ001-FLZ074-172-MI076-
NYZ176-178-MAZ016-IL014-TNZ027-NJZ106-GAZ044-MD014-240700-

...Gateway Observations for Charleston International...

CITY           SKY/WX    TMP DP  RH WIND       PRES   REMARKS
Chas Airport   MOCLDY    73  68  84 S16G24    29.73F
6HR MIN TEMP:  73; 6HR MAX TEMP:  75;

Seattle        CLOUDY    47  45  93 S7        29.82S
6HR MIN TEMP:  46; 6HR MAX TEMP:  50; 6HR PCP:  0.31;

Charlotte      HVY RAIN  52  49  89 N10       29.88S FOG
6HR MIN TEMP:  51; 6HR MAX TEMP:  54; 6HR PCP:  1.33;

Dallas DFW     CLEAR     59  42  53 SE5       29.97F
6HR MIN TEMP:  59; 6HR MAX TEMP:  72;

Dallas Love    CLEAR     54  46  74 CALM      29.98F
6HR MIN TEMP:  54; 6HR MAX TEMP:  73;

Philladelphia  CLOUDY    51  45  79 SE3       30.11F
6HR MIN TEMP:  50; 6HR MAX TEMP:  57;

Wash National  LGT RAIN  56  48  74 E7        30.09F
6HR MIN TEMP:  56; 6HR MAX TEMP:  58; 6HR PCP: TRACE;

Baltimore      CLOUDY    53  50  89 CALM      30.09F
6HR MIN TEMP:  53; 6HR MAX TEMP:  56;

Miami          CLOUDY    71  69  93 VRB3      29.77F FOG
6HR MIN TEMP:  71; 6HR MAX TEMP:  75;

Detroit        PTCLDY    48  32  53 NE3       30.07F
6HR MIN TEMP:  47; 6HR MAX TEMP:  62;

Newark         MOCLDY    50  42  74 S5        30.13S
6HR MIN TEMP:  50; 6HR MAX TEMP:  56;

Laguardia      MOCLDY    52  40  63 S3        30.12F
6HR MIN TEMP:  52; 6HR MAX TEMP:  53;

J F K          MOCLDY    48  46  93 SW3       30.14F
6HR MIN TEMP:  47; 6HR MAX TEMP:  50;

Boston Logan   CLEAR     46  38  73 SW8       30.10S
6HR MIN TEMP:  46; 6HR MAX TEMP:  54;

Ft. Lauderdale CLOUDY    70  70 100 NW6       29.76F
6HR MIN TEMP:  70; 6HR MAX TEMP:  74;

Chicago O`Hare MOCLDY    43  38  82 NE7       30.04F
6HR MIN TEMP:  43; 6HR MAX TEMP:  65;

Chicago Midway MOCLDY    47  39  74 N6        30.04F
6HR MIN TEMP:  47; 6HR MAX TEMP:  65;

Houston Bush   CLEAR     57  50  77 CALM      29.98F
6HR MIN TEMP:  55; 6HR MAX TEMP:  71;

Houston Hobby  CLEAR     57  50  77 SW5       29.98F
6HR MIN TEMP:  57; 6HR MAX TEMP:  71;

Nashville      CLOUDY    53  51  93 N9        29.84F
6HR MIN TEMP:  53; 6HR MAX TEMP:  53; 6HR PCP:  0.40;

Atlanta        DRIZZLE   54  53  97 NE10      29.78F FOG
6HR MIN TEMP:  54; 6HR MAX TEMP:  63; 6HR PCP: TRACE;


$$

GAZ044-118-TXZ119-213-NCZ071-DCZ001-MDZ014-506-PAZ021-071-NJZ106-
NYZ176-178-MAZ106-OHZ011-021-055-MIZ076-KYZ091-ILZ014-INZ047-
MNZ060-ONZ431-240700-

...Gateway Observations for Savannah International...

CITY           SKY/WX    TMP DP  RH WIND       PRES   REMARKS
Savannah Arpt  MOCLDY    72  66  81 S12       29.73F
6HR MIN TEMP:  71; 6HR MAX TEMP:  77; 6HR PCP:  0.04;

Atlanta        DRIZZLE   54  53  97 NE10      29.78F FOG
6HR MIN TEMP:  54; 6HR MAX TEMP:  63; 6HR PCP: TRACE;

Charlotte      HVY RAIN  52  49  89 N10       29.88S FOG
6HR MIN TEMP:  51; 6HR MAX TEMP:  54; 6HR PCP:  1.33;

Dallas DFW     CLEAR     59  42  53 SE5       29.97F
6HR MIN TEMP:  59; 6HR MAX TEMP:  72;

Houston Bush   CLEAR     57  50  77 CALM      29.98F
6HR MIN TEMP:  55; 6HR MAX TEMP:  71;

Wash National  LGT RAIN  56  48  74 E7        30.09F
6HR MIN TEMP:  56; 6HR MAX TEMP:  58; 6HR PCP: TRACE;

Wash Dulles    CLOUDY    54  46  74 CALM      30.08F
6HR MIN TEMP:  51; 6HR MAX TEMP:  55;

Baltimore      CLOUDY    53  50  89 CALM      30.09F
6HR MIN TEMP:  53; 6HR MAX TEMP:  56;

Philadelphia   CLOUDY    51  45  79 SE3       30.11F
6HR MIN TEMP:  50; 6HR MAX TEMP:  57;

Newark         MOCLDY    50  42  74 S5        30.13S
6HR MIN TEMP:  50; 6HR MAX TEMP:  56;

Laguardia      MOCLDY    52  40  63 S3        30.12F
6HR MIN TEMP:  52; 6HR MAX TEMP:  53;

J F K          MOCLDY    48  46  93 SW3       30.14F
6HR MIN TEMP:  47; 6HR MAX TEMP:  50;

Boston         CLEAR     46  38  73 SW8       30.10S
6HR MIN TEMP:  46; 6HR MAX TEMP:  54;

Pittsburg      CLOUDY    54  31  41 E3        30.03F
6HR MIN TEMP:  54; 6HR MAX TEMP:  66;

Akron          MOCLDY    50  29  44 E6        30.05S
6HR MIN TEMP:  49; 6HR MAX TEMP:  64;

Cleveland      CLEAR     46  35  65 CALM      30.07F
6HR MIN TEMP:  43; 6HR MAX TEMP:  55;

Cincinnati     MOCLDY    55  36  48 N10       29.95S
6HR MIN TEMP:  54; 6HR MAX TEMP:  62;

Columbus       CLEAR     48  37  67 NE7       29.98F
Detroit        PTCLDY    48  32  53 NE3       30.07F
6HR MIN TEMP:  47; 6HR MAX TEMP:  62;

Chicago O`Hare MOCLDY    43  38  82 NE7       30.04F
6HR MIN TEMP:  43; 6HR MAX TEMP:  65;

Minneapolis    CLOUDY    51  39  63 NE5       29.87F
6HR MIN TEMP:  51; 6HR MAX TEMP:  68;

Indianapolis   CLEAR     51  32  48 NE9       29.98F
6HR MIN TEMP:  51; 6HR MAX TEMP:  67;

Toronto Canada CLEAR     46  36  66 N8        30.09S

$$




USA.gov is the U.S. government's official web portal to all federal, state and local government web resources and services.